EHI
3 4 5 4 4 4 4 4 5 6 5 3 2 1 0 0 0 0 0 0 0 0 0 0 0 0 0 0 0 0 0 0 0 0 0 0 0 0 0 1 1 1 2
4 4 4 4 4 4 4 3 4 5 5 3 3 2 1 0 0 0 0 0 0 0 0 0 0 0 0 0 0 0 0 0 0 0 0 0 0 0 0 0 0 1 2
7 5 4 3 3 4 3 3 3 4 4 3 3 3 1 0 0 0 0 0 0 0 0 0 1 1 0 0 0 0 0 0 0 0 0 0 0 0 0 0 0 0 1
8 6 5 4 4 4 4 4 4 4 4 4 3 3 2 1 1 1 0 0 0 0 0 1 2 2 1 0 0 0 0 0 0 0 0 0 0 0 0 0 0 0 0
7 6 6 7 6 6 6 5 5 5 5 5 4 3 3 2 2 2 1 1 1 1 1 2 2 2 1 0 0 0 0 0 0 0 0 0 0 0 0 0 0 0 0
5 5 7 8 8 7 7 6 5 4 4 5 5 4 3 3 3 2 1 2 2 2 2 2 1 1 0 0 0 0 0 0 0 0 0 0 0 0 0 0 0 0 0
5 5 6 7 8 7 6 6 5 4 4 4 4 3 3 3 3 2 2 2 3 3 3 1 0 0 0 0 0 0 0 0 0 0 0 0 0 0 0 0 0 0 0
5 5 5 6 6 5 5 5 5 5 4 4 3 3 3 3 3 2 2 3 3 3 2 1 0 0 0 0 0 0 0 0 0 0 0 0 0 0 0 0 0 0 0
6 6 5 4 4 3 3 4 4 4 4 3 3 3 3 3 2 3 3 3 3 3 1 0 0 0 0 0 0 0 0 0 0 0 0 0 0 0 0 0 0 0 0
7 7 5 3 3 3 3 3 3 3 3 3 3 3 3 3 3 3 3 3 3 2 1 0 0 0 0 0 0 0 0 0 0 0 0 0 0 0 0 0 0 0 0
7 7 5 4 4 3 3 3 3 3 3 3 3 3 3 3 3 3 3 3 3 2 1 0 0 0 0 0 0 0 0 0 0 0 0 0 0 0 0 0 0 0 0
6 6 6 6 5 4 3 3 3 3 3 3 3 3 3 3 3 3 2 2 2 1 0 0 0 0 0 0 0 0 0 0 0 0 0 0 0 0 0 0 0 0 0
6 6 6 6 6 4 3 3 3 3 3 3 3 3 3 3 3 3 2 1 1 0 0 0 0 0 0 0 0 0 0 0 0 0 0 0 0 0 0 0 0 0 0
6 6 6 6 6 5 4 3 3 3 3 3 3 3 3 3 3 3 2 1 0 0 0 0 0 0 0 0 0 0 0 0 0 0 0 0 0 0 0 0 0 0 0
5 5 5 6 6 6 4 3 3 3 3 3 3 3 3 3 3 3 3 1 0 0 0 0 0 0 0 0 0 0 0 0 0 0 0 0 0 0 0 0 0 0 0
4 4 4 5 6 5 4 3 3 3 3 3 3 3 3 3 3 3 3 2 1 0 0 0 0 0 0 0 0 0 0 0 0 0 0 0 0 0 0 0 0 0 0
3 3 3 4 5 4 3 3 3 3 3 3 3 3 3 3 3 3 3 2 1 0 0 0 0 0 0 0 0 0 0 0 0 0 0 0 0 0 0 0 0 0 0
3 3 2 3 4 3 3 3 3 3 3 3 3 3 3 3 3 3 3 1 0 0 0 0 0 0 0 0 0 0 0 0 0 0 0 0 0 0 0 0 0 0 0
2 3 3 3 3 2 2 3 3 3 3 3 3 3 3 3 3 3 2 1 0 0 0 0 0 0 0 0 0 0 0 0 0 0 0 0 0 0 0 0 0 0 0
3 3 3 3 3 1 1 2 3 3 3 3 3 3 3 3 3 3 2 1 0 0 0 0 0 0 0 0 0 0 0 0 0 0 0 0 0 0 0 0 0 0 0
4 3 2 2 2 1 1 1 2 3 3 3 3 3 3 3 3 3 1 0 0 0 0 0 0 0 0 0 0 0 0 0 0 0 0 0 0 0 0 0 0 0 0
4 3 2 2 1 1 0 0 1 3 3 3 3 3 3 3 3 2 1 0 0 0 0 0 0 0 0 0 0 0 0 0 0 0 0 0 0 0 0 0 0 0 0
3 3 3 2 1 1 0 0 1 2 3 3 3 3 3 3 3 1 0 0 0 0 0 0 0 0 0 0 0 0 0 0 0 0 0 0 0 0 0 0 0 0 0
3 3 2 1 1 1 0 0 1 2 3 3 3 3 3 3 2 1 0 0 0 0 0 0 0 0 0 0 0 0 0 0 0 0 0 0 0 0 0 0 0 0 0
2 1 1 0 0 0 0 0 0 1 2 3 3 3 3 3 2 1 0 0 0 0 0 0 0 0 0 0 0 0 0 0 0 0 0 0 0 0 0 0 0 0 0
2 1 0 0 0 0 0 0 0 0 1 3 3 3 3 3 1 0 0 0 0 0 0 0 0 0 0 0 0 0 0 0 0 0 0 0 0 0 0 0 0 0 0
Wind_Speed
7 8 8 9 9 9 9 9 9 9 9 9 10 9 9 9 9 9 10 10 10 10 11 11 12 12 12 13 13 13 13 13 13 14 14 14 14 14 15 14 12 10 15
9 10 9 9 9 9 9 9 9 9 9 9 9 9 9 9 9 9 9 9 9 10 11 11 11 12 12 12 12 12 12 12 12 12 12 12 13 14 14 14 13 10 14
9 10 9 9 9 9 9 9 9 9 9 9 9 9 8 8 8 8 8 9 9 10 10 10 11 11 11 11 11 11 10 9 9 8 8 6 9 14 14 14 15 15 14
9 9 8 8 9 9 9 9 8 9 9 9 9 8 8 8 8 8 8 8 9 9 9 10 10 10 11 10 10 10 9 8 8 7 6 6 7 12 14 14 14 15 15
9 9 9 9 9 8 8 8 8 8 8 8 8 8 8 8 8 8 8 8 8 9 9 9 9 10 10 9 9 9 8 8 8 7 6 6 6 11 13 13 14 14 14
9 9 9 9 9 8 8 8 8 8 8 8 7 8 8 8 8 8 8 8 8 8 8 9 9 9 9 8 8 7 8 7 6 5 6 6 6 11 12 12 12 13 13
8 9 9 9 9 8 8 8 7 7 7 7 7 7 7 7 7 7 7 7 7 7 7 8 8 8 8 7 6 6 7 7 4 5 5 5 6 11 11 11 11 11 11
7 8 8 9 8 8 7 7 7 7 7 7 6 6 6 6 6 7 7 7 7 7 7 7 7 7 7 6 6 5 6 5 5 5 5 5 8 11 11 10 10 10 10
6 7 6 6 6 6 6 6 6 6 6 6 6 6 6 5 5 6 6 6 6 6 6 6 6 6 6 6 5 5 5 5 3 3 5 4 8 10 10 10 9 10 9
5 6 5 5 4 4 4 5 6 6 6 6 5 5 5 4 5 5 5 5 6 5 5 5 5 5 5 4 3 3 3 3 3 3 3 4 9 9 9 9 8 9 9
5 4 4 4 4 3 3 4 4 5 5 4 3 4 3 2 2 3 4 5 5 4 4 4 4 4 3 2 2 2 2 1 3 3 2 5 8 7 7 7 7 7 7
5 4 4 4 3 3 3 3 2 2 2 2 2 2 1 1 2 2 4 4 4 4 3 3 3 3 2 1 1 0 0 1 2 2 3 6 7 6 6 6 6 6 6
4 4 4 4 3 3 2 2 1 1 2 1 2 2 1 1 2 2 1 2 2 2 1 1 1 1 1 1 1 1 0 1 1 2 3 6 6 6 6 5 5 5 5
4 4 3 4 3 3 2 1 1 1 1 1 1 2 1 1 1 1 1 1 1 1 1 1 1 1 1 1 1 1 1 1 2 2 3 6 5 5 5 5 5 5 4
4 4 3 3 3 2 2 1 2 1 1 1 1 1 1 1 1 1 0 0 1 1 1 1 1 1 1 1 1 1 1 1 2 2 2 5 5 4 4 4 3 3 3
4 4 3 3 3 2 2 1 1 1 1 1 1 1 1 1 1 1 0 0 0 1 1 1 1 1 1 1 1 1 1 1 2 3 2 2 3 3 3 3 3 3 2
3 4 3 3 3 3 2 2 1 1 2 1 1 1 1 1 1 0 0 0 0 0 0 0 1 1 1 1 1 1 1 1 2 2 2 2 2 2 3 3 3 2 2
3 3 4 3 3 3 2 1 1 2 2 1 1 1 1 1 1 1 1 0 0 0 0 1 1 1 1 1 1 0 1 1 1 2 1 1 1 1 1 2 2 2 2
3 3 4 3 3 3 2 2 1 1 1 1 1 1 1 1 1 1 1 0 0 0 0 0 1 1 1 1 1 1 1 1 1 1 1 1 1 1 1 2 2 1 2
2 3 3 3 3 3 2 2 1 1 1 1 1 1 1 1 1 1 1 1 1 1 1 1 0 0 1 1 1 1 1 1 1 1 1 1 1 1 1 2 1 1 1
3 3 3 3 3 2 2 2 2 1 1 0 1 1 1 1 1 1 1 1 1 1 1 1 1 1 1 1 1 1 1 0 1 1 1 1 1 1 1 1 1 1 1
3 2 3 3 3 3 2 2 2 2 1 1 0 1 1 1 1 1 1 1 1 1 1 1 1 1 0 1 1 1 0 1 1 1 1 1 1 1 1 0 1 1 1
3 3 2 3 3 3 3 2 2 1 1 1 1 1 1 1 1 2 2 2 1 1 2 1 1 2 1 1 1 2 2 2 1 1 1 1 1 0 0 1 1 1 1
3 2 2 2 3 3 3 3 3 2 2 2 2 1 1 1 1 1 2 2 2 1 1 2 1 1 2 2 1 1 1 2 2 1 1 1 1 0 0 0 0 0 1
3 2 2 2 2 3 3 4 4 3 2 1 2 2 1 1 1 1 1 2 2 2 2 1 1 1 1 2 1 1 1 1 1 2 2 1 1 1 0 0 1 1 1
2 2 2 3 2 3 3 4 4 4 3 2 2 3 2 1 1 2 2 2 2 2 2 2 1 1 1 1 1 1 1 1 1 1 2 2 2 1 1 1 1 1 1
Wind_Direction
111 115 114 106 99 96 93 91 89 89 89 87 87 84 82 81 79 79 79 77 75 77 78 77 77 76 75 74 73 72 72 76 75 75 73 74 72 71 72 73 75 76 77
117 118 115 109 103 99 96 92 89 89 89 87 86 85 84 83 82 80 80 80 79 80 81 80 79 77 76 76 75 73 74 76 77 78 74 71 73 73 71 70 73 78 76
116 121 118 108 105 103 98 94 90 87 89 85 84 85 84 84 82 81 82 82 82 82 81 82 82 81 78 77 76 75 73 74 75 77 76 76 75 76 75 73 73 74 75
113 117 116 108 107 104 101 97 93 89 88 86 84 85 85 84 83 81 80 81 82 82 81 83 85 83 80 77 76 75 69 64 61 59 71 71 74 79 78 76 75 74 72
110 112 111 109 107 105 101 98 94 91 90 87 84 83 85 85 84 82 80 81 81 80 80 82 85 85 81 76 73 71 63 52 47 56 68 67 66 80 80 79 78 76 75
113 110 112 110 109 107 103 99 97 94 91 89 86 82 80 82 85 85 83 81 80 80 81 82 84 86 84 77 72 65 55 43 44 62 69 69 72 82 83 82 81 79 78
112 113 118 111 111 108 105 103 100 97 94 90 88 85 83 82 86 89 89 87 83 83 84 83 82 86 86 80 73 61 50 39 57 66 69 70 79 85 85 84 82 82 80
104 111 119 110 109 107 105 105 102 98 96 93 88 87 90 90 88 90 92 94 91 89 86 85 82 83 85 83 76 61 43 37 63 75 74 73 85 89 89 87 84 85 83
104 106 114 116 111 104 102 100 100 96 95 92 87 81 80 82 86 91 93 95 95 91 90 90 89 87 88 84 74 56 40 36 58 68 81 78 90 92 91 89 87 85 84
106 108 113 118 114 113 111 99 100 98 95 92 88 81 73 77 86 87 94 100 101 96 95 97 97 93 92 87 72 48 30 27 70 72 75 88 94 95 94 91 88 87 86
112 109 116 116 118 117 125 117 110 105 104 106 105 102 92 95 99 95 98 99 106 105 106 108 109 103 101 96 84 39 13 63 86 83 79 96 101 100 100 98 94 91 89
136 126 121 114 114 115 115 119 126 125 124 123 121 127 125 90 90 87 102 107 109 110 115 124 128 126 128 149 156 87 53 93 91 95 93 104 109 109 109 108 103 98 94
136 133 130 127 122 114 104 117 117 121 130 134 109 107 101 93 103 106 120 122 126 133 138 138 156 181 165 153 145 153 130 93 94 98 98 108 117 122 120 117 113 112 105
130 129 122 124 122 120 116 121 123 111 116 119 116 108 75 79 96 116 121 143 161 170 170 172 190 189 171 162 147 143 116 107 98 101 100 108 117 125 128 123 118 116 113
137 133 125 119 121 123 121 124 106 113 109 103 98 100 85 81 91 94 137 150 186 181 185 175 189 159 149 170 174 150 128 115 111 108 108 109 118 129 138 133 129 124 118
148 143 132 127 125 125 124 121 120 120 116 99 97 81 78 80 88 77 51 93 172 205 186 163 173 141 140 140 137 121 111 89 101 112 125 123 122 131 145 154 159 154 155
146 140 135 135 129 129 128 132 132 127 124 123 116 100 85 79 86 87 73 36 5 323 251 158 165 135 148 128 112 100 107 92 96 102 123 139 144 145 160 172 181 187 190
138 140 141 137 135 135 131 137 139 129 124 126 120 116 101 89 90 99 111 103 24 324 294 164 160 131 159 145 151 150 100 103 113 119 118 135 145 156 174 173 184 202 214
140 134 137 140 141 141 135 132 129 124 124 119 109 106 104 97 104 110 116 120 106 66 50 157 111 134 149 149 149 140 127 126 135 113 113 124 141 147 161 162 170 197 220
137 136 135 138 138 136 133 127 121 105 109 106 111 116 127 134 120 113 112 95 102 105 60 48 93 118 145 146 133 114 136 149 124 130 149 133 145 141 143 150 161 203 233
130 129 140 133 142 136 139 153 153 157 153 136 148 137 146 129 116 113 113 125 107 116 110 94 99 118 126 119 102 72 6 83 124 154 156 161 173 147 136 148 156 161 219
154 143 145 151 153 150 155 162 164 161 164 164 165 171 162 158 154 154 146 148 130 132 124 121 123 135 201 154 139 140 172 320 304 232 202 191 201 155 144 117 113 128 140
161 163 159 167 157 158 156 139 129 115 132 147 191 202 204 179 164 165 169 163 162 160 162 162 162 159 187 224 173 157 162 201 244 272 231 215 197 155 206 213 166 140 126
165 154 161 167 165 168 163 159 160 176 188 198 192 193 194 182 164 174 176 166 163 165 170 185 169 174 171 194 246 293 201 164 162 233 286 262 231 221 240 263 251 161 146
149 154 173 169 176 175 177 175 177 193 194 175 170 176 186 184 169 174 183 177 169 176 182 183 166 164 177 187 196 236 259 292 191 172 224 253 298 284 241 234 247 246 217
136 149 172 174 186 182 181 179 183 190 188 178 189 196 192 187 182 183 183 181 183 179 182 186 180 175 184 189 198 193 184 197 216 199 209 226 245 265 273 242 237 234 224